| time (UTC) | temp F | wind direction | speed knots | gust knots | rain 1hr in | rain 24hr in | rain mn in | humidity % | barometer mb |
| 20260507101205 | 47 | 160 | 0.9 | 0.9 | 0.00 | 0.30 | 0.01 | 77 | 1011.9 |
| 20260507100705 | 47 | 160 | 0.0 | 0.9 | 0.00 | 0.30 | 0.01 | 79 | 1011.8 |
| 20260507100205 | 47 | 160 | 0.0 | 1.7 | 0.00 | 0.30 | 0.01 | 79 | 1011.7 |
| 20260507094705 | 47 | 160 | 0.0 | 0.9 | 0.00 | 0.30 | 0.01 | 79 | 1011.5 |
| 20260507094205 | 47 | 160 | 0.0 | 1.7 | 0.00 | 0.30 | 0.01 | 78 | 1011.5 |
| 20260507093705 | 47 | 160 | 0.9 | 1.7 | 0.00 | 0.30 | 0.01 | 78 | 1011.5 |
| 20260507093205 | 47 | 160 | 0.9 | 1.7 | 0.00 | 0.30 | 0.01 | 78 | 1011.4 |
| 20260507092705 | 47 | 160 | 0.0 | 1.7 | 0.00 | 0.30 | 0.01 | 78 | 1011.3 |
| 20260507092206 | 47 | 160 | 0.0 | 0.9 | 0.00 | 0.30 | 0.01 | 78 | 1011.3 |
| 20260507091706 | 47 | 160 | 0.9 | 1.7 | 0.00 | 0.30 | 0.01 | 78 | 1011.2 |
| 20260507091205 | 47 | 160 | 0.0 | 1.7 | 0.00 | 0.30 | 0.01 | 76 | 1011.2 |
| 20260507090705 | 48 | 160 | 0.9 | 1.7 | 0.00 | 0.30 | 0.01 | 76 | 1011.2 |
| 20260507090205 | 48 | 160 | 0.0 | 1.7 | 0.00 | 0.30 | 0.01 | 75 | 1011.1 |
| 20260507085705 | 49 | 160 | 0.0 | 1.7 | 0.00 | 0.30 | 0.01 | 72 | 1011.1 |
| 20260507085205 | 49 | 160 | 0.0 | 1.7 | 0.00 | 0.30 | 0.01 | 69 | 1011.1 |
| 20260507084705 | 50 | 160 | 0.9 | 1.7 | 0.00 | 0.30 | 0.01 | 68 | 1011.1 |
| 20260507084204 | 50 | 160 | 0.9 | 1.7 | 0.00 | 0.30 | 0.01 | 61 | 1011.0 |
| 20260507083205 | 51 | 241 | 0.9 | 1.7 | 0.00 | 0.30 | 0.01 | 62 | 1011.1 |
| 20260507082205 | 51 | 241 | 0.0 | 1.7 | 0.00 | 0.30 | 0.01 | 58 | 1011.1 |
| 20260507081705 | 51 | 239 | 0.9 | 1.7 | 0.00 | 0.30 | 0.01 | 60 | 1011.2 |
| 20260507081205 | 51 | 85 | 0.9 | 4.3 | 0.00 | 0.30 | 0.01 | 60 | 1011.2 |
| 20260507080704 | 52 | 213 | 1.7 | 6.1 | 0.00 | 0.30 | 0.01 | 58 | 1011.2 |
| 20260507080205 | 52 | 256 | 1.7 | 6.1 | 0.00 | 0.30 | 0.01 | 59 | 1011.2 |
| 20260507075705 | 52 | 329 | 0.9 | 2.6 | 0.00 | 0.30 | 0.01 | 55 | 1011.2 |
| 20260507074705 | 52 | 167 | 0.0 | 5.2 | 0.00 | 0.30 | 0.01 | 57 | 1011.2 |
| 20260507074205 | 52 | 215 | 1.7 | 2.6 | 0.00 | 0.30 | 0.01 | 59 | 1011.2 |
| 20260507073705 | 52 | 141 | 2.6 | 4.3 | 0.00 | 0.30 | 0.01 | 56 | 1011.2 |
| 20260507073204 | 52 | 169 | 0.9 | 1.7 | 0.00 | 0.30 | 0.01 | 55 | 1011.3 |
| 20260507072705 | 52 | 170 | 1.7 | 5.2 | 0.00 | 0.30 | 0.01 | 53 | 1011.3 |
| 20260507072205 | 52 | 201 | 1.7 | 4.3 | 0.00 | 0.30 | 0.01 | 57 | 1011.2 |
| 20260507071705 | 51 | 242 | 0.9 | 7.0 | 0.00 | 0.30 | 0.01 | 65 | 1011.2 |
| 20260507071204 | 51 | 202 | 0.0 | 1.7 | 0.00 | 0.30 | 0.01 | 67 | 1011.2 |
| 20260507070705 | 52 | 202 | 0.9 | 1.7 | 0.00 | 0.30 | 0.01 | 69 | 1011.2 |
| 20260507070205 | 52 | 202 | 0.9 | 4.3 | 0.00 | 0.30 | 0.01 | 67 | 1011.2 |
| 20260507065705 | 52 | 189 | 0.9 | 1.7 | 0.00 | 0.30 | 0.01 | 65 | 1011.2 |
| 20260507065204 | 52 | 188 | 0.9 | 1.7 | 0.00 | 0.30 | 0.01 | 66 | 1011.2 |
| 20260507064705 | 53 | 188 | 0.9 | 2.6 | 0.00 | 0.30 | 0.01 | 67 | 1011.2 |
| 20260507064205 | 53 | 188 | 0.9 | 2.6 | 0.00 | 0.30 | 0.01 | 60 | 1011.1 |
| 20260507063704 | 53 | 213 | 2.6 | 6.1 | 0.00 | 0.30 | 0.01 | 63 | 1011.1 |
| 20260507062704 | 53 | 195 | 0.9 | 2.6 | 0.00 | 0.30 | 0.01 | 66 | 1010.9 |
| 20260507062204 | 53 | 14 | 1.7 | 2.6 | 0.00 | 0.30 | 0.01 | 66 | 1011.1 |
| 20260507061705 | 53 | 215 | 1.7 | 4.3 | 0.00 | 0.30 | 0.01 | 71 | 1011.1 |
| 20260507060705 | 53 | 204 | 0.9 | 2.6 | 0.00 | 0.30 | 0.01 | 72 | 1011.0 |
| 20260507060205 | 53 | 28 | 1.7 | 6.1 | 0.00 | 0.30 | 0.01 | 69 | 1011.0 |
| 20260507055705 | 53 | 287 | 1.7 | 7.0 | 0.00 | 0.30 | 0.01 | 69 | 1011.1 |
| 20260507055205 | 53 | 258 | 1.7 | 5.2 | 0.00 | 0.30 | 0.01 | 70 | 1011.0 |
| 20260507054704 | 53 | 0 | 1.7 | 2.6 | 0.01 | 0.30 | 0.01 | 72 | 1011.1 |
| 20260507054205 | 53 | 196 | 0.9 | 2.6 | 0.01 | 0.30 | 0.01 | 75 | 1011.0 |
| 20260507053704 | 53 | 70 | 0.9 | 2.6 | 0.01 | 0.30 | 0.01 | 75 | 1010.9 |
| 20260507053205 | 53 | 16 | 1.7 | 4.3 | 0.01 | 0.30 | 0.01 | 77 | 1011.0 |
| 20260507051704 | 53 | 257 | 0.9 | 4.3 | 0.01 | 0.30 | 0.01 | 78 | 1011.1 |
| 20260507051204 | 53 | 222 | 0.9 | 2.6 | 0.01 | 0.30 | 0.01 | 79 | 1011.0 |
| 20260507050705 | 53 | 100 | 1.7 | 2.6 | 0.01 | 0.30 | 0.01 | 79 | 1011.0 |
| 20260507050204 | 53 | 122 | 0.9 | 4.3 | 0.01 | 0.30 | 0.01 | 79 | 1011.1 |
| 20260507045705 | 52 | 28 | 1.7 | 2.6 | 0.01 | 0.30 | 0.01 | 81 | 1011.0 |
| 20260507045205 | 53 | 294 | 0.9 | 1.7 | 0.01 | 0.30 | 0.01 | 81 | 1010.9 |
| 20260507044704 | 54 | 294 | 0.0 | 2.6 | 0.00 | 0.29 | 0.00 | 78 | 1010.9 |
| 20260507044205 | 54 | 204 | 0.0 | 2.6 | 0.00 | 0.29 | 0.00 | 76 | 1011.2 |
| 20260507043704 | 55 | 275 | 0.9 | 4.3 | 0.00 | 0.29 | 0.00 | 74 | 1011.2 |
| 20260507043204 | 55 | 219 | 0.0 | 2.6 | 0.00 | 0.29 | 0.00 | 73 | 1011.3 |
| 20260507042705 | 55 | 253 | 1.7 | 5.2 | 0.00 | 0.29 | 0.00 | 72 | 1011.3 |
| 20260507042204 | 55 | 18 | 1.7 | 2.6 | 0.00 | 0.29 | 0.00 | 72 | 1011.2 |
| 20260507041704 | 55 | 246 | 0.9 | 2.6 | 0.00 | 0.29 | 0.00 | 73 | 1011.0 |
| 20260507041205 | 55 | 181 | 0.9 | 2.6 | 0.00 | 0.29 | 0.00 | 71 | 1011.0 |
| 20260507040705 | 56 | 182 | 0.9 | 2.6 | 0.00 | 0.29 | 0.00 | 72 | 1011.0 |
| 20260507040204 | 56 | 214 | 0.9 | 1.7 | 0.00 | 0.29 | 0.00 | 72 | 1011.1 |
| 20260507035705 | 56 | 216 | 0.0 | 1.7 | 0.00 | 0.29 | 0.29 | 73 | 1011.0 |
| 20260507035204 | 56 | 216 | 0.0 | 1.7 | 0.00 | 0.29 | 0.29 | 72 | 1011.0 |
| 20260507034205 | 56 | 247 | 1.7 | 2.6 | 0.00 | 0.29 | 0.29 | 71 | 1011.1 |
| 20260507033704 | 56 | 214 | 0.9 | 2.6 | 0.00 | 0.29 | 0.29 | 71 | 1010.8 |
| 20260507033204 | 56 | 229 | 2.6 | 5.2 | 0.00 | 0.29 | 0.29 | 72 | 1011.0 |
| 20260507032704 | 56 | 341 | 0.9 | 1.7 | 0.00 | 0.29 | 0.29 | 71 | 1010.7 |
| 20260507032204 | 56 | 220 | 1.7 | 4.3 | 0.00 | 0.29 | 0.29 | 72 | 1010.9 |
| 20260507031705 | 56 | 254 | 1.7 | 2.6 | 0.00 | 0.29 | 0.29 | 70 | 1010.7 |
| 20260507030704 | 56 | 345 | 0.9 | 2.6 | 0.00 | 0.29 | 0.29 | 71 | 1010.6 |
| 20260507025704 | 56 | 244 | 0.9 | 6.1 | 0.00 | 0.29 | 0.29 | 75 | 1010.8 |
| 20260507025205 | 57 | 180 | 0.9 | 1.7 | 0.00 | 0.29 | 0.29 | 74 | 1010.6 |
| 20260507024705 | 57 | 180 | 0.9 | 2.6 | 0.00 | 0.29 | 0.29 | 74 | 1010.4 |
| 20260507024204 | 57 | 180 | 0.9 | 1.7 | 0.00 | 0.29 | 0.29 | 74 | 1010.3 |
| 20260507023704 | 57 | 179 | 1.7 | 2.6 | 0.00 | 0.29 | 0.29 | 72 | 1010.6 |
| 20260507023204 | 57 | 247 | 1.7 | 7.8 | 0.00 | 0.29 | 0.29 | 73 | 1010.7 |
| 20260507022705 | 57 | 187 | 1.7 | 2.6 | 0.00 | 0.29 | 0.29 | 72 | 1010.7 |
| 20260507022204 | 57 | 296 | 1.7 | 2.6 | 0.00 | 0.29 | 0.29 | 73 | 1010.6 |
| 20260507021705 | 57 | 296 | 1.7 | 6.1 | 0.00 | 0.29 | 0.29 | 74 | 1010.7 |
| 20260507021204 | 57 | 244 | 0.0 | 0.9 | 0.00 | 0.29 | 0.29 | 75 | 1010.5 |
| 20260507020705 | 58 | 244 | 0.0 | 1.7 | 0.00 | 0.29 | 0.29 | 73 | 1010.5 |
| 20260507020205 | 58 | 244 | 0.0 | 1.7 | 0.00 | 0.29 | 0.29 | 72 | 1010.4 |
| 20260507015705 | 58 | 192 | 0.9 | 2.6 | 0.00 | 0.29 | 0.29 | 73 | 1010.5 |
| 20260507014704 | 58 | 257 | 1.7 | 2.6 | 0.00 | 0.29 | 0.29 | 72 | 1010.5 |
| 20260507013704 | 58 | 338 | 1.7 | 7.0 | 0.00 | 0.29 | 0.29 | 73 | 1010.5 |
| 20260507013204 | 58 | 312 | 3.5 | 10.4 | 0.00 | 0.29 | 0.29 | 72 | 1010.6 |
| 20260507012704 | 58 | 321 | 4.3 | 13.0 | 0.00 | 0.29 | 0.29 | 72 | 1010.4 |
| 20260507012204 | 59 | 348 | 3.5 | 12.2 | 0.00 | 0.29 | 0.29 | 72 | 1010.2 |
| 20260507011705 | 59 | 339 | 3.5 | 10.4 | 0.00 | 0.29 | 0.29 | 72 | 1010.2 |
| 20260507011206 | 59 | 307 | 3.5 | 10.4 | 0.00 | 0.29 | 0.29 | 72 | 1010.2 |
| 20260507010206 | 59 | 354 | 5.2 | 12.2 | 0.00 | 0.29 | 0.29 | 72 | 1010.1 |
| 20260507005705 | 59 | 338 | 2.6 | 8.7 | 0.00 | 0.29 | 0.29 | 73 | 1010.0 |
| 20260507005205 | 59 | 210 | 0.0 | 4.3 | 0.00 | 0.29 | 0.29 | 75 | 1010.0 |
| 20260507004705 | 60 | 355 | 0.0 | 5.2 | 0.00 | 0.29 | 0.29 | 75 | 1010.2 |
| 20260507004205 | 59 | 354 | 0.9 | 5.2 | 0.00 | 0.29 | 0.29 | 75 | 1009.8 |
| 20260507003705 | 60 | 240 | 0.9 | 2.6 | 0.00 | 0.29 | 0.29 | 75 | 1009.9 |
| 20260507003205 | 60 | 246 | 0.0 | 7.0 | 0.00 | 0.29 | 0.29 | 73 | 1010.0 |
| 20260507002705 | 60 | 236 | 1.7 | 7.8 | 0.00 | 0.29 | 0.29 | 73 | 1010.1 |
| 20260507002205 | 61 | 265 | 1.7 | 7.0 | 0.00 | 0.29 | 0.29 | 73 | 1010.0 |
| 20260507001705 | 60 | 272 | 1.7 | 7.8 | 0.00 | 0.29 | 0.29 | 73 | 1009.6 |
| 20260507001205 | 61 | 355 | 2.6 | 7.8 | 0.00 | 0.29 | 0.29 | 72 | 1009.4 |
| 20260507000205 | 61 | 354 | 1.7 | 7.8 | 0.00 | 0.29 | 0.29 | 72 | 1009.1 |
| 20260506235705 | 61 | 357 | 4.3 | 8.7 | 0.00 | 0.29 | 0.29 | 71 | 1008.9 |
| 20260506235205 | 61 | 345 | 1.7 | 5.2 | 0.00 | 0.29 | 0.29 | 73 | 1008.6 |
| 20260506234705 | 61 | 9 | 2.6 | 10.4 | 0.00 | 0.29 | 0.29 | 71 | 1008.6 |
| 20260506234205 | 61 | 351 | 4.3 | 8.7 | 0.00 | 0.29 | 0.29 | 72 | 1008.5 |
| 20260506233705 | 61 | 352 | 4.3 | 10.4 | 0.00 | 0.29 | 0.29 | 72 | 1008.4 |
| 20260506233205 | 62 | 357 | 4.3 | 12.2 | 0.00 | 0.29 | 0.29 | 72 | 1008.3 |
| 20260506232706 | 62 | 346 | 5.2 | 12.2 | 0.00 | 0.29 | 0.29 | 71 | 1008.0 |
| 20260506232205 | 62 | 356 | 3.5 | 10.4 | 0.00 | 0.29 | 0.29 | 72 | 1008.1 |
| 20260506231705 | 62 | 343 | 5.2 | 8.7 | 0.00 | 0.29 | 0.29 | 72 | 1008.0 |
| 20260506231205 | 63 | 8 | 3.5 | 10.4 | 0.00 | 0.29 | 0.29 | 74 | 1008.0 |
| 20260506230705 | 63 | 342 | 5.2 | 12.2 | 0.00 | 0.29 | 0.29 | 74 | 1008.0 |
| 20260506230205 | 63 | 0 | 5.2 | 10.4 | 0.00 | 0.29 | 0.29 | 74 | 1007.9 |
| 20260506225705 | 63 | 338 | 2.6 | 6.1 | 0.00 | 0.29 | 0.29 | 76 | 1007.9 |
| 20260506224705 | 63 | 333 | 4.3 | 10.4 | 0.00 | 0.29 | 0.29 | 76 | 1007.9 |
| 20260506223705 | 64 | 354 | 4.3 | 8.7 | 0.00 | 0.29 | 0.29 | 76 | 1007.9 |
| 20260506223205 | 64 | 348 | 4.3 | 7.8 | 0.00 | 0.29 | 0.29 | 77 | 1007.8 |
| 20260506222705 | 64 | 354 | 2.6 | 7.8 | 0.00 | 0.29 | 0.29 | 77 | 1007.7 |
| 20260506221705 | 64 | 310 | 0.9 | 4.3 | 0.00 | 0.29 | 0.29 | 82 | 1007.6 |
| 20260506221204 | 64 | 15 | 2.6 | 5.2 | 0.00 | 0.29 | 0.29 | 84 | 1007.4 |
| 20260506220704 | 64 | 4 | 0.9 | 4.3 | 0.00 | 0.29 | 0.29 | 87 | 1007.4 |
| 20260506220205 | 64 | 357 | 0.9 | 2.6 | 0.00 | 0.29 | 0.29 | 88 | 1007.3 |
| 20260506215705 | 65 | 299 | 0.0 | 1.7 | 0.00 | 0.29 | 0.29 | 88 | 1007.3 |
| 20260506215205 | 65 | 300 | 0.0 | 0.0 | 0.00 | 0.29 | 0.29 | 87 | 1007.1 |
| 20260506214705 | 65 | 300 | 0.0 | 0.0 | 0.00 | 0.29 | 0.29 | 87 | 1007.0 |
| 20260506214205 | 65 | 300 | 0.0 | 1.7 | 0.00 | 0.29 | 0.29 | 87 | 1007.0 |
| 20260506213204 | 65 | 287 | 0.0 | 1.7 | 0.00 | 0.29 | 0.29 | 86 | 1006.8 |
| 20260506212705 | 66 | 287 | 0.9 | 1.7 | 0.00 | 0.29 | 0.29 | 85 | 1006.7 |
| 20260506212205 | 66 | 287 | 0.0 | 0.9 | 0.00 | 0.29 | 0.29 | 84 | 1006.5 |
| 20260506211705 | 67 | 287 | 0.0 | 1.7 | 0.00 | 0.29 | 0.29 | 84 | 1006.4 |
| 20260506211204 | 67 | 287 | 0.0 | 1.7 | 0.00 | 0.29 | 0.29 | 82 | 1006.4 |
| 20260506210704 | 67 | 287 | 0.0 | 0.0 | 0.00 | 0.29 | 0.29 | 81 | 1006.3 |
| 20260506210204 | 67 | 287 | 0.9 | 1.7 | 0.00 | 0.29 | 0.29 | 79 | 1006.3 |
| 20260506205204 | 67 | 233 | 0.0 | 2.6 | 0.00 | 0.29 | 0.29 | 80 | 1006.3 |
| 20260506204705 | 67 | 190 | 0.0 | 1.7 | 0.00 | 0.29 | 0.29 | 81 | 1006.4 |
| 20260506204205 | 67 | 249 | 0.9 | 1.7 | 0.00 | 0.29 | 0.29 | 80 | 1006.4 |
| 20260506203705 | 67 | 224 | 1.7 | 4.3 | 0.00 | 0.29 | 0.29 | 81 | 1006.3 |
| 20260506202705 | 67 | 212 | 0.0 | 1.7 | 0.00 | 0.29 | 0.29 | 81 | 1006.3 |
| 20260506202204 | 67 | 276 | 0.9 | 5.2 | 0.00 | 0.29 | 0.29 | 81 | 1006.3 |
| 20260506201704 | 67 | 258 | 1.7 | 2.6 | 0.00 | 0.29 | 0.29 | 81 | 1006.2 |
| 20260506200704 | 67 | 220 | 0.9 | 2.6 | 0.00 | 0.29 | 0.29 | 83 | 1006.3 |
| 20260506200204 | 67 | 193 | 1.7 | 2.6 | 0.00 | 0.29 | 0.29 | 81 | 1006.2 |
| 20260506195204 | 66 | 296 | 0.9 | 2.6 | 0.00 | 0.29 | 0.29 | 83 | 1006.3 |
| 20260506194705 | 66 | 190 | 0.0 | 1.7 | 0.00 | 0.29 | 0.29 | 83 | 1006.4 |
| 20260506194204 | 66 | 190 | 0.0 | 1.7 | 0.00 | 0.29 | 0.29 | 84 | 1006.4 |
| 20260506193705 | 65 | 190 | 0.9 | 1.7 | 0.00 | 0.29 | 0.29 | 85 | 1006.4 |
| 20260506193204 | 65 | 190 | 0.0 | 0.9 | 0.00 | 0.29 | 0.29 | 86 | 1006.5 |
| 20260506192705 | 64 | 190 | 0.0 | 0.9 | 0.00 | 0.29 | 0.29 | 85 | 1006.6 |
| 20260506192205 | 65 | 190 | 0.0 | 0.0 | 0.00 | 0.29 | 0.29 | 87 | 1006.7 |
| 20260506191704 | 64 | 190 | 0.0 | 0.0 | 0.00 | 0.29 | 0.29 | 88 | 1006.7 |
| 20260506191205 | 64 | 190 | 0.0 | 1.7 | 0.00 | 0.29 | 0.29 | 87 | 1006.7 |
| 20260506190705 | 64 | 190 | 0.0 | 1.7 | 0.00 | 0.29 | 0.29 | 87 | 1006.7 |
| 20260506190204 | 64 | 190 | 0.0 | 2.6 | 0.00 | 0.29 | 0.29 | 87 | 1006.7 |
| 20260506185704 | 64 | 175 | 0.9 | 2.6 | 0.00 | 0.29 | 0.29 | 85 | 1006.8 |
| 20260506185204 | 64 | 192 | 1.7 | 2.6 | 0.00 | 0.29 | 0.29 | 86 | 1006.8 |
| 20260506184704 | 64 | 167 | 1.7 | 2.6 | 0.00 | 0.29 | 0.29 | 86 | 1006.8 |
| 20260506184204 | 64 | 206 | 0.9 | 1.7 | 0.00 | 0.29 | 0.29 | 86 | 1006.9 |
| 20260506183204 | 64 | 207 | 0.9 | 1.7 | 0.00 | 0.29 | 0.29 | 87 | 1007.0 |
| 20260506182204 | 63 | 157 | 2.6 | 6.1 | 0.01 | 0.29 | 0.29 | 87 | 1007.0 |
| 20260506181704 | 63 | 175 | 0.9 | 2.6 | 0.01 | 0.29 | 0.29 | 88 | 1006.9 |
| 20260506181204 | 63 | 206 | 0.9 | 2.6 | 0.01 | 0.29 | 0.29 | 88 | 1006.8 |
| 20260506180704 | 63 | 159 | 1.7 | 4.3 | 0.01 | 0.29 | 0.29 | 88 | 1006.9 |
| 20260506180204 | 63 | 165 | 0.9 | 4.3 | 0.01 | 0.29 | 0.29 | 89 | 1006.9 |
| 20260506175204 | 63 | 166 | 2.6 | 4.3 | 0.02 | 0.29 | 0.29 | 89 | 1007.0 |
| 20260506174705 | 62 | 178 | 0.0 | 1.7 | 0.02 | 0.29 | 0.29 | 89 | 1007.1 |
| 20260506174204 | 62 | 178 | 0.9 | 1.7 | 0.02 | 0.29 | 0.29 | 89 | 1007.1 |
| 20260506173704 | 62 | 178 | 1.7 | 2.6 | 0.02 | 0.29 | 0.29 | 89 | 1007.0 |
| 20260506173204 | 62 | 178 | 0.0 | 0.9 | 0.02 | 0.29 | 0.29 | 89 | 1007.0 |
| 20260506172704 | 62 | 178 | 0.0 | 1.7 | 0.02 | 0.29 | 0.29 | 89 | 1007.0 |
| 20260506172204 | 62 | 178 | 0.0 | 0.0 | 0.01 | 0.28 | 0.28 | 89 | 1007.0 |
| 20260506171704 | 62 | 178 | 0.0 | 0.9 | 0.01 | 0.28 | 0.28 | 89 | 1007.0 |
| 20260506171204 | 62 | 178 | 0.0 | 0.0 | 0.01 | 0.28 | 0.28 | 89 | 1007.1 |
| 20260506170704 | 62 | 178 | 0.0 | 1.7 | 0.01 | 0.28 | 0.28 | 89 | 1007.0 |
| 20260506170204 | 62 | 178 | 0.0 | 1.7 | 0.01 | 0.28 | 0.28 | 89 | 1007.1 |
| 20260506165704 | 62 | 177 | 0.0 | 1.7 | 0.01 | 0.28 | 0.28 | 89 | 1007.1 |
| 20260506165203 | 62 | 177 | 0.9 | 1.7 | 0.00 | 0.27 | 0.27 | 89 | 1007.1 |
| 20260506164204 | 61 | 183 | 0.0 | 1.7 | 0.00 | 0.27 | 0.27 | 88 | 1007.0 |
| 20260506163704 | 61 | 183 | 0.9 | 1.7 | 0.00 | 0.27 | 0.27 | 88 | 1007.0 |
| 20260506162704 | 62 | 156 | 0.0 | 1.7 | 0.00 | 0.27 | 0.27 | 88 | 1007.1 |
| 20260506161704 | 62 | 238 | 0.0 | 1.7 | 0.00 | 0.27 | 0.27 | 88 | 1007.2 |
| 20260506161207 | 61 | 238 | 0.9 | 2.6 | 0.00 | 0.27 | 0.27 | 88 | 1007.1 |
| 20260506160706 | 62 | 229 | 0.9 | 1.7 | 0.00 | 0.27 | 0.27 | 87 | 1007.1 |
| 20260506160206 | 62 | 229 | 0.9 | 1.7 | 0.01 | 0.27 | 0.27 | 88 | 1007.1 |
| 20260506155706 | 62 | 229 | 0.9 | 1.7 | 0.01 | 0.27 | 0.27 | 88 | 1007.0 |
| 20260506154706 | 61 | 173 | 1.7 | 4.3 | 0.03 | 0.27 | 0.27 | 88 | 1007.0 |
| 20260506154206 | 61 | 207 | 0.0 | 4.3 | 0.05 | 0.27 | 0.27 | 88 | 1007.0 |
| 20260506153706 | 61 | 172 | 0.0 | 1.7 | 0.06 | 0.27 | 0.27 | 88 | 1007.0 |
| 20260506153206 | 61 | 172 | 0.0 | 1.7 | 0.07 | 0.27 | 0.27 | 88 | 1007.0 |
| 20260506152706 | 61 | 181 | 0.9 | 1.7 | 0.08 | 0.27 | 0.27 | 88 | 1007.1 |
| 20260506151706 | 61 | 188 | 0.9 | 2.6 | 0.10 | 0.27 | 0.27 | 89 | 1006.9 |
| 20260506151206 | 61 | 190 | 0.0 | 2.6 | 0.11 | 0.27 | 0.27 | 89 | 1006.8 |
| 20260506150706 | 61 | 144 | 2.6 | 4.3 | 0.13 | 0.27 | 0.27 | 88 | 1006.7 |
| 20260506150206 | 61 | 182 | 0.9 | 2.6 | 0.15 | 0.26 | 0.26 | 88 | 1006.8 |
| 20260506145706 | 61 | 183 | 0.0 | 2.6 | 0.15 | 0.26 | 0.26 | 88 | 1007.1 |
| 20260506145206 | 61 | 174 | 0.9 | 2.6 | 0.15 | 0.25 | 0.25 | 88 | 1007.3 |
| 20260506144706 | 61 | 186 | 0.0 | 1.7 | 0.14 | 0.24 | 0.24 | 88 | 1007.3 |
| 20260506143207 | 61 | 191 | 2.6 | 7.0 | 0.11 | 0.20 | 0.20 | 88 | 1007.5 |
| 20260506142207 | 61 | 149 | 0.9 | 1.7 | 0.10 | 0.18 | 0.18 | 88 | 1007.8 |
| 20260506141706 | 61 | 149 | 0.0 | 2.6 | 0.10 | 0.17 | 0.17 | 87 | 1007.7 |
| 20260506141206 | 61 | 190 | 0.0 | 2.6 | 0.10 | 0.16 | 0.16 | 87 | 1007.7 |
| 20260506140706 | 61 | 178 | 0.9 | 2.6 | 0.08 | 0.14 | 0.14 | 87 | 1007.6 |
| 20260506135706 | 61 | 214 | 0.9 | 2.6 | 0.05 | 0.11 | 0.11 | 86 | 1007.6 |
| 20260506135207 | 61 | 207 | 0.9 | 2.6 | 0.04 | 0.10 | 0.10 | 87 | 1007.5 |
| 20260506134706 | 61 | 176 | 1.7 | 4.3 | 0.05 | 0.10 | 0.10 | 87 | 1007.3 |
| 20260506134206 | 61 | 133 | 0.9 | 2.6 | 0.05 | 0.10 | 0.10 | 87 | 1007.2 |
| 20260506133706 | 61 | 153 | 0.9 | 2.6 | 0.05 | 0.10 | 0.10 | 87 | 1007.3 |
| 20260506132706 | 61 | 166 | 1.7 | 4.3 | 0.04 | 0.09 | 0.09 | 89 | 1007.4 |
| 20260506132206 | 60 | 144 | 0.0 | 1.7 | 0.03 | 0.08 | 0.08 | 88 | 1007.3 |
| 20260506131706 | 61 | 144 | 0.0 | 0.0 | 0.03 | 0.07 | 0.07 | 88 | 1007.3 |
| 20260506131206 | 61 | 144 | 0.0 | 0.0 | 0.02 | 0.06 | 0.06 | 88 | 1007.3 |
| 20260506130706 | 61 | 144 | 0.0 | 0.0 | 0.03 | 0.06 | 0.06 | 88 | 1007.6 |
| 20260506130206 | 60 | 144 | 0.0 | 0.9 | 0.03 | 0.06 | 0.06 | 88 | 1007.5 |
| 20260506125706 | 60 | 144 | 0.0 | 0.9 | 0.04 | 0.06 | 0.06 | 88 | 1007.6 |
| 20260506125206 | 61 | 144 | 0.0 | 0.0 | 0.04 | 0.06 | 0.06 | 88 | 1007.4 |
| 20260506124708 | 61 | 144 | 0.0 | 0.0 | 0.04 | 0.05 | 0.05 | 89 | 1007.3 |
| 20260506123706 | 60 | 144 | 0.0 | 0.0 | 0.04 | 0.05 | 0.05 | 89 | 1007.5 |
| 20260506123206 | 60 | 144 | 0.0 | 0.0 | 0.04 | 0.05 | 0.05 | 88 | 1007.6 |
| 20260506122706 | 60 | 144 | 0.0 | 1.7 | 0.05 | 0.05 | 0.05 | 88 | 1007.6 |
| 20260506122206 | 60 | 144 | 0.0 | 1.7 | 0.05 | 0.05 | 0.05 | 88 | 1007.6 |
| 20260506121706 | 60 | 144 | 0.0 | 1.7 | 0.04 | 0.04 | 0.04 | 88 | 1007.7 |
| 20260506121205 | 60 | 144 | 0.0 | 1.7 | 0.04 | 0.04 | 0.04 | 87 | 1007.8 |
| 20260506120706 | 60 | 144 | 0.0 | 0.9 | 0.03 | 0.03 | 0.03 | 87 | 1007.9 |
| 20260506120206 | 60 | 144 | 0.0 | 1.7 | 0.03 | 0.03 | 0.03 | 87 | 1007.8 |
| 20260506115205 | 60 | 144 | 0.0 | 1.7 | 0.02 | 0.02 | 0.02 | 85 | 1008.0 |
| 20260506114706 | 60 | 144 | 0.0 | 1.7 | 0.01 | 0.01 | 0.01 | 85 | 1007.9 |
| 20260506114206 | 60 | 144 | 0.0 | 0.9 | 0.01 | 0.01 | 0.01 | 84 | 1007.9 |
| 20260506113206 | 61 | 144 | 0.0 | 1.7 | 0.01 | 0.01 | 0.01 | 81 | 1007.6 |
| 20260506112206 | 61 | 144 | 0.0 | 2.6 | 0.00 | 0.00 | 0.00 | 78 | 1007.4 |
| 20260506111706 | 61 | 152 | 0.9 | 2.6 | 0.00 | 0.00 | 0.00 | 78 | 1007.3 |
| 20260506111206 | 62 | 200 | 0.0 | 1.7 | 0.00 | 0.00 | 0.00 | 76 | 1007.3 |
| 20260506110705 | 62 | 186 | 0.0 | 1.7 | 0.00 | 0.00 | 0.00 | 75 | 1007.2 |
| 20260506110206 | 62 | 186 | 0.0 | 0.9 | 0.00 | 0.00 | 0.00 | 75 | 1007.1 |
| 20260506105706 | 62 | 186 | 0.0 | 0.9 | 0.00 | 0.00 | 0.00 | 74 | 1007.1 |
| 20260506105206 | 63 | 186 | 0.0 | 6.1 | 0.00 | 0.00 | 0.00 | 73 | 1007.1 |
| 20260506104705 | 63 | 200 | 0.9 | 2.6 | 0.00 | 0.00 | 0.00 | 71 | 1007.0 |
| 20260506104206 | 63 | 163 | 0.9 | 2.6 | 0.00 | 0.00 | 0.00 | 71 | 1007.0 |
| 20260506103706 | 63 | 159 | 0.0 | 0.0 | 0.00 | 0.00 | 0.00 | 72 | 1006.9 |
| 20260506103206 | 63 | 159 | 0.0 | 1.7 | 0.00 | 0.00 | 0.00 | 69 | 1006.8 |
| 20260506102705 | 64 | 218 | 0.0 | 2.6 | 0.00 | 0.00 | 0.00 | 68 | 1006.8 |
| 20260506102206 | 63 | 165 | 0.9 | 2.6 | 0.00 | 0.00 | 0.00 | 69 | 1006.7 |
| 20260506101705 | 62 | 167 | 0.0 | 1.7 | 0.00 | 0.00 | 0.00 | 71 | 1006.7 |